Погода в Абзаново

Россия / Республика Башкортостан     51°51′02″N   56°45′40″E
темп.,
°C
ветер,
м/с
пор.,
м/с
влажн.,
%
обл.,
%
осадки,
мм/ч
давл.,
гПа
погр.,
м
9 мая, вс
вс923:00+12в22715 0.0 101611
02:00+11всв1169100 0.0 101611
05:00+10ссв117113 0.0 101610
08:00+14ссз12591 0.0 1016141
11:00+18с34480 0.0 1015894
14:00+21ссз34372 0.0 10152210
17:00+21с24366 0.0 10152206
20:00+17св225410 0.0 101611
10 мая, пн
пн1023:00+14ссв11585 0.0 101611
02:00+12всв22645 0.0 101710
05:00+11в22662 0.0 101817
08:00+15в410643 0.0 1019369
11:00+19в67500 0.0 10191108
14:00+21в454435 0.0 10192218
17:00+17в4860100 0.0 1020320
20:00+17всв2261100 0.0 102019
11 мая, вт
вт1123:00+14в2164100 0.0 102110
02:00+12всв41159100 0.0 1022178
05:00+11в3106437 0.0 1024154
08:00+14вюв597196 0.0 1025347
11:00+18юв455489 0.0 10271013
14:00+20вюв3444100 0.0 10271877
17:00+21в3442100 0.0 10261988
20:00+17всв345876 0.0 102754
12 мая, ср
ср1223:00+13всв224866 0.0 102812
02:00+11в334917 0.0 102920
05:00+10в2254100 0.0 102914
08:00+14в245560 0.0 1030158
11:00+18юв4542100 0.0 10301065
14:00+20вюв4537100 0.0 10301570
17:00+21вюв3436100 0.0 10291556
20:00+17юв115299 0.0 102911
13 мая, чт
чт1323:00+14всв22483 0.0 102911
02:00+12всв22535 0.0 102910
05:00+11всв21580 0.0 102910
08:00+16в11540 0.0 1029103
11:00+22в12390 0.0 1029747
14:00+24вюв13315 0.0 10282007
17:00+25в13338 0.0 10272146
20:00+21ссз22505 0.0 102711